Home   Weather   Cairo   Past weeks
Flag for Egypt

Past Weather in Cairo, Egypt — Yesterday and Last 2 Weeks

Now
91 °F

Clear.


Feels Like: 90 °F
Forecast: 101 / 81 °F
Wind: 8 mph from Southwest

Location: Cairo Airport

Current Time: Jul 17, 2019 at 7:12:59 am

Latest Report: Jul 17, 2019 at 6:30 am


Visibility: 4 mi

Pressure: 29.65 "Hg

Humidity: 32%

Dew Point: 57 °F

Location of CairoLocation

Past Weather in Cairo — Graph

°F

Cairo Temperature Yesterday

Maximum temperature yesterday: 102 °F (at 4:30 pm)
Minimum temperature yesterday: 79 °F (at 4:00 am)
Average temperature yesterday: 91 °F

High & Low Weather Summary for the Past Weeks

 TemperatureHumidityPressure
High108 °F (Jul 12, 1:00 pm)84% (Jul 7, 1:00 am)29.89 "Hg (Jul 7, 1:00 am)
Low75 °F (Jul 5, 4:00 am)11% (Jul 12, 1:00 pm)29.59 "Hg (Jul 17, 3:00 am)
Average87 °F50%29.78 "Hg
* Reported Jul 2 6:00 am — Jul 17 6:00 am, Cairo. Weather by CustomWeather, © 2019

Note: Actual official high and low records may vary slightly from our data, if they occured in-between our weather recording intervals... More about our weather records

Advertising

Cairo Weather History for the Previous 24 Hours

Scroll right to see more
 ConditionsComfort  
Time TempWeatherWind HumidityBarometerVisibility
6:00 am
Wed, Jul 17
91 °FClear.10 mph30%29.65 "Hg4 mi
5:30 am91 °FClear.10 mph30%29.65 "Hg4 mi
5:00 am91 °FClear.10 mph30%29.62 "Hg4 mi
4:30 am93 °FClear.10 mph26%29.62 "Hg4 mi
4:00 am97 °FClear.12 mph20%29.59 "Hg10 mi
3:30 am97 °FClear.10 mph20%29.59 "Hg4 mi
3:00 am97 °FClear.10 mph20%29.59 "Hg4 mi
2:30 am97 °FClear.10 mph20%29.62 "Hg4 mi
2:00 am97 °FClear.9 mph20%29.62 "Hg4 mi
1:30 am97 °FClear.8 mph20%29.62 "Hg4 mi
1:00 am97 °FClear.7 mph20%29.65 "Hg4 mi
12:30 am97 °FClear.7 mph19%29.65 "Hg4 mi
12:00 am95 °FClear.5 mph23%29.65 "Hg4 mi
11:30 pm
Tue, Jul 16
95 °FClear.3 mph28%29.68 "Hg4 mi
10:30 pm95 °FClear.9 mph26%29.71 "Hg10 mi
10:00 pm95 °FClear.9 mph26%29.71 "Hg10 mi
9:30 pm97 °FClear.7 mph32%29.68 "Hg10 mi
9:00 pm97 °FClear.7 mph32%29.68 "Hg10 mi
8:30 pm99 °FClear.5 mph17%29.68 "Hg4 mi
8:00 pm99 °FClear.5 mph17%29.68 "Hg4 mi
7:30 pm100 °FClear.5 mph17%29.68 "Hg4 mi
7:00 pm100 °FClear.5 mph17%29.68 "Hg4 mi
6:30 pm100 °FClear.6 mph21%29.68 "Hg4 mi
6:00 pm100 °FClear.5 mph21%29.68 "Hg4 mi
5:30 pm100 °FSunny.3 mph20%29.71 "Hg10 mi
5:00 pm102 °FSunny.2 mph17%29.71 "Hg10 mi
4:30 pm102 °FSunny.5 mph17%29.71 "Hg10 mi
4:00 pm100 °FSunny.1 mph18%29.71 "Hg10 mi
3:00 pm100 °FSunny.6 mph22%29.74 "Hg10 mi
2:00 pm100 °FSunny.9 mph21%29.74 "Hg10 mi
1:00 pm99 °FSunny.5 mph24%29.77 "Hg10 mi
12:30 pm99 °FSunny.3 mph24%29.77 "Hg10 mi
12:00 pm95 °FSunny.2 mph28%29.77 "Hg10 mi
11:30 am95 °FSunny.5 mph26%29.77 "Hg10 mi
11:00 am93 °FSunny.3 mph32%29.80 "Hg10 mi
10:30 am91 °FSunny.2 mph34%29.80 "Hg10 mi
10:00 am90 °FSunny.5 mph41%29.80 "Hg10 mi
9:30 am88 °FSunny.5 mph46%29.80 "Hg10 mi
9:00 am86 °FSunny.3 mph49%29.80 "Hg10 mi
8:30 am86 °FSunny.5 mph49%29.80 "Hg10 mi
8:00 am84 °FSunny.6 mph55%29.80 "Hg10 mi
7:30 am82 °FClear.8 mph58%29.80 "Hg4 mi
7:00 am81 °FClear.7 mph62%29.80 "Hg4 mi
Weather by CustomWeather, © 2019

See weather overview